SL-8 DEB, 1634

Orbit data source: Space-Track

SL-8 DEB, 1634 is space debris in LEO originally from a launch on Mon, 15 Mar 1965 UTC launched from the Tyuratam Missile And Space Complex (TTMTR). Debris objects in space refer to the collection of defunct objects orbiting the Earth. Examples of debris include non-operational satellites, rocket bodies, and fragments generated from explosions, collisions, or faulty payload assembly.

Loading next visibility...
Identifier
1634, 1965-020ED
Orbit
LEO
Last TLE update
2 days ago
Origin
Manufacturer
Unknown
Mission
Spacecraft
Bus & Motor
Unknown
Mass
Unknown
Launch date (UTC)
1965-03-15 (60 years ago)
Launch vehicle
Unknown
Launch site
Tyuratam Missile And Space Complex (TTMTR)
Object type
Payload
Rocket body
Debris
Shape & HBR
Unknown
Radar Cross Section
Small (<0.1 m²)

Expand to show TLE details & history

TLE from 2 days ago
0 SL-8 DEB
1 01634U 65020ED  25181.28511819  .00000037  00000-0  23486-3 0  9995
2 01634  56.1593 302.0759 0851977 326.6856  28.3082 12.48435513718537
Epoch: 2025-06-30T06:50Z
TLE epoch observation values (Epoch: 2025-06-30T06:50:34.211Z)
Latitude
-0.00001°
Longitude
-79.16378°
Altitude
897.772 km
Speed
7.67 km/s
True Right ascension
20h 08m 18s
True Declination
0° 00' 00"
Sunlit
Object was in full shadow at epoch
Visualization orbit readout
Latitude
1.85183°
Longitude
94.6893°
Altitude
2,044.983 km
Speed
6.625 km/s
Apparent Right ascension
05h 44m 09s
Apparent Declination
-21° 08' 17"
Sunlit
Object is in daylight
Visualization observer readout
Local Sidereal Time
13:48:31
Azimuth
272.326° WNW
Elevation
-36.926°
Doppler factor
1
Orbital elements
Apogee altitude
2,139.569 km
Perigee altitude
802.137 km
Semi-major axis
7,848.99 km
Eccentricity
0.0852
Inclination
56.1593°
RAAN
302.0759°
Arg. of periapsis
326.6856°
True anomaly
Unknown
Mean anomaly
28.3082°
Eccentric anomaly
Unknown
Mean motion
3.12121 °/min
Orbital period
115.34 mins
BSTAR
0.00023486
Loading maneuver chart data...
Loading SW <> Apogee altitude chart data...
Loading historical data...
Loading historical data...
Loading historical data...
Loading historical data...
Loading historical data...
Loading historical data...
Loading historical data...

SL-8 DEB Visibility forecast

Observer location: undefined°, undefined°

Span
Click to sort rows by Start time (UTC) header in descending order
Start Az.
Max El. time (UTC)
Max El. Az.
Max El.
End time (UTC)
End Az.
12 mins2025-07-02 08:55:29.503Z177.476° S2025-07-02 09:00:29.503Z122.499° SE29.774°2025-07-02 09:07:29.503Z59.587° ENE
15 mins2025-07-02 10:54:29.503Z245.307° WSW2025-07-02 11:00:29.503Z319.582° NNW41.529°2025-07-02 11:09:29.503Z42.505° NE
15 mins2025-07-02 12:57:29.503Z298.661° NW2025-07-02 13:03:29.503Z353.01° N28.662°2025-07-02 13:12:29.503Z50.383° ENE
18 mins2025-07-02 14:59:29.503Z318.637° NNW2025-07-02 15:07:29.503Z20.984° NNE31.572°2025-07-02 15:17:29.503Z80.915° E
22 mins2025-07-02 17:00:29.503Z317.517° NNW2025-07-02 17:10:29.503Z54.57° ENE43.783°2025-07-02 17:22:29.503Z126.148° SE
20 mins2025-07-02 19:01:29.503Z302.006° NW2025-07-02 19:10:29.503Z245.172° WSW34.802°2025-07-02 19:21:29.503Z176.072° S
|